Regional Weather Roundup
Issued by NWS

Home | Current Version | Previous Version | Text Only | Print | Product List | Glossary Off
Versions: 1 2 3 4 5 6 7 8 9 10 11 12 13 14 15 16 17 18 19 20 21 22 23 24 25 26 27 28 29 30 31 32 33 34 35 36 37 38 39 40 41 42 43 44 45 46 47 48 49 50

000
ASUS43 KLOT 240308
RWRIL

ILLINOIS REGIONAL WEATHER ROUNDUP
NATIONAL WEATHER SERVICE CHICAGO/ROMEOVILLE IL
1000 PM CDT SUN APR 23 2017

NOTE: "FAIR" INDICATES FEW OR NO CLOUDS BELOW 12,000 FEET WITH NO
SIGNIFICANT WEATHER AND/OR OBSTRUCTIONS TO VISIBILITY.

* THESE STATIONS ARE NOT UNDER NWS QUALITY CONTROL. THEY ALSO MAY NOT
  REPORT WEATHER SUCH AS PRECIPITATION OR FOG.

ILZ001-002-007-009-015-016-024-240400-
NORTHWEST ILLINOIS

CITY           SKY/WX    TMP DP  RH WIND       PRES   REMARKS
MOLINE         CLEAR     51  37  58 E3        30.01S
STERLING*      CLEAR     54  36  50 CALM      30.02S
SAVANNA*       CLEAR     57  36  45 CALM      30.02R
$$

ILZ003-004-008-010-011-017-018-240400-
NORTH CENTRAL ILLINOIS

CITY           SKY/WX    TMP DP  RH WIND       PRES   REMARKS
ROCKFORD       CLOUDY    57  36  45 SE9       30.04R
FREEPORT*      CLEAR     52  34  51 SW5       30.04S
ROCHELLE*      PTCLDY    57  34  42 SE9       30.04S
DE KALB*       MOCLDY    56  34  44 SE7       30.05S
PERU*          CLOUDY    59  30  32 SE7       30.03F
$$

ILZ005-006-012>014-019>023-240400-
NORTHEAST ILLINOIS

CITY           SKY/WX    TMP DP  RH WIND       PRES   REMARKS
CHICAGO-OHARE  MOCLDY    47  38  71 NE8       30.05S
CHICAGO-MIDWAY MOCLDY    60  25  26 E7        30.05F
AURORA         PTCLDY    55  35  47 SE6       30.04F
LANSING*       CLEAR     51  33  50 NE5       30.04F
JOLIET*        PTCLDY    53  40  63 CALM      30.04F
WAUKEGAN       MOCLDY    41 N/A N/A NE6       30.07S
DUPAGE AIRPORT PTCLDY    56  34  43 SE5       30.04F
KANKAKEE*      CLEAR     49  29  46 CALM      30.05S
WHEELING       PTCLDY    43  40  89 NE6       30.07F
MORRIS*        CLEAR     55  31  39 CALM      30.03F
ROMEOVILLE*    PTCLDY    55  35  45 E6        30.04F
NORTHERLY ISL    N/A     46  41  82 N10         N/A
$$

LMZ740>746-240400-
SOUTHERN LAKE MICHIGAN

STATION/POSITION SKY/WX   TEMP    WIND        PRES    VSBY  WAVE
                          AIR SEA DIR/SP/G                  HT/PER
                          (F)     (DEG/KT/KT) (MB)    (MI)  (FT/S)
SOUTHERN BUOY              40 41   20/  6/  8 1019.1          1/ 4
HARRISON CRIB              45     350/ 13/ 14   N/A
BURNHAM HARBOR             45      10/  9/ 12   N/A
CALUMET HARBOR             49     340/  8/ 11 1017.3S
BURNS HARBOR               54      60/  7/  8 1017.9S
MICHIGAN CITY              51      30/  7/  7   N/A
ST. JOSEPH                 52 53   70/  4/  6 1018.3          0
$$

ILZ025>027-034>036-040-047-049-050-058-095>099-240400-
WEST-CENTRAL ILLINOIS

CITY           SKY/WX    TMP DP  RH WIND       PRES   REMARKS
QUINCY         CLEAR     60  27  28 SE3       30.01F
GALESBURG*     CLEAR     53  31  43 SE3       30.02R
MACOMB*        PTCLDY    57  29  35 S3        30.04S
JACKSONVILLE*  CLEAR     53  32  44 N3        30.01F
PITTSFIELD*    CLOUDY    54  35  48 W3        30.02F
$$

ILZ028>032-037-038-041>044-048-051>054-059>061-240400-
CENTRAL ILLINOIS

CITY           SKY/WX    TMP DP  RH WIND       PRES   REMARKS
PONTIAC        CLEAR     53  31  43 NE9       30.03F
BLOOMINGTON    CLEAR     52  25  35 E12       30.03S
DECATUR        CLEAR     52  31  44 NE6       30.02R
PEORIA         CLEAR     54  33  45 CALM      30.02F
LACON*         CLOUDY    51  38  61 CALM      30.01F
LINCOLN*       CLEAR     57  29  35 CALM      30.02S
SPRINGFIELD    CLEAR     55  34  45 CALM      30.01R
TAYLORVILLE    CLEAR     52  32  46 NE5       30.01S
$$

ILZ033-039-045-046-055>057-062-063-240400-
EAST-CENTRAL ILLINOIS

CITY           SKY/WX    TMP DP  RH WIND       PRES   REMARKS
CHAMPAIGN      CLEAR     57  30  35 NE9       30.02S
RANTOUL*       CLEAR     56  30  36 NE9       30.03S
MATTOON        CLEAR     53  31  42 CALM      30.00R
PARIS*         CLEAR     57  32  38 NE6       30.02S
$$

ILZ079-100>102-240400-
SOUTHWEST ILLINOIS

CITY           SKY/WX    TMP DP  RH WIND       PRES   REMARKS
ALTON          CLEAR     50  34  53 N7        30.01R
BELLEVILLE     CLEAR     53  36  51 NW3       29.98S
CAHOKIA*       CLEAR     52  36  54 CALM      29.99S
SPARTA*        CLEAR     57  35  43 CALM      29.99F
$$

ILZ064>066-069>071-074>076-080>082-084>086-088>090-092>094-240400-
SOUTH-CENTRAL ILLINOIS

CITY           SKY/WX    TMP DP  RH WIND       PRES   REMARKS
CARBONDALE     CLEAR     55  40  56 N6        29.97R
CAIRO*         CLEAR     56  41  55 NW8       29.93F
EFFINGHAM*     CLEAR     60  32  34 CALM      30.02R
MARION         CLEAR     52  39  62 CALM      29.97S
MT. VERNON     CLEAR     48  38  68 N3        29.99R
CENTRALIA*     CLEAR     56  35  44 CALM      29.99R
SALEM*         CLEAR     60  28  29 NE5       29.99S
METROPOLIS*    CLEAR     55  45  68 CALM      29.96R
$$

ILZ067-068-072-073-078-083-087-091-240400-
SOUTHEAST ILLINOIS

CITY           SKY/WX    TMP DP  RH WIND       PRES   REMARKS
LAWRENCEVILLE  CLEAR     57  33  40 N9        29.98R
FLORA*         CLEAR     58  32  37 N6        29.99R
FAIRFIELD*     CLEAR     56  33  42 CALM      29.97R
HARRISBURG*    CLEAR     57  39  50 N3        29.96S
ROBINSON*      CLEAR     55  31  40 N7        30.00R
CARMI*         CLEAR     55  42  60 NE6       29.96R
$$

ABBREVIATIONS USED IN REMARKS
   TC - TEMPERATURE IN CELSIUS
  WCI - WIND CHILL INDEX
   HX - HEAT INDEX
  VSB - VISIBILITY
$$





USA.gov is the U.S. government's official web portal to all federal, state and local government web resources and services.